Wind_Speed
38 42 45 46 47 46 46 45 45 45 45 44 44 44 42 42 41 39 41 40 38 37 36 37 36 34 33 32 36 40 40 45 45 43 42 42 44 42 40 41 44 44 39 33 25
35 39 44 47 47 48 47 45 44 45 46 46 45 44 45 45 46 45 43 40 42 42 40 38 38 36 38 42 42 40 31 29 44 43 42 43 42 40 37 34 36 37 40 27 20
32 36 41 46 46 46 46 46 45 45 46 47 46 47 46 47 45 44 42 43 41 39 40 39 40 39 41 43 42 37 35 39 45 43 41 40 38 37 31 15 18 42 32 21 19
33 32 33 41 43 44 44 44 44 45 45 45 46 48 49 48 46 47 46 44 44 43 43 43 42 41 40 38 39 38 41 42 41 41 41 38 37 31 28 22 30 42 29 17 15
33 32 31 34 40 45 45 45 44 44 42 43 44 44 46 49 49 48 47 46 46 45 45 44 42 40 38 37 38 40 40 41 40 37 37 36 33 28 28 24 23 22 19 13 12
35 34 34 34 36 42 44 46 45 43 43 43 43 42 44 45 46 46 45 43 43 43 43 43 41 39 38 37 37 38 39 37 35 33 33 33 31 30 30 24 20 17 14 14 10
36 34 36 36 36 38 42 44 47 47 46 46 45 44 43 43 43 43 43 41 39 41 41 39 38 38 37 36 34 33 33 31 32 28 27 28 22 4 35 25 16 12 15 15 13
36 35 35 37 38 39 41 41 44 49 49 46 46 43 43 42 43 42 43 42 40 40 40 38 37 36 35 31 29 30 31 30 26 24 23 23 2 35 33 23 13 13 16 16 16
36 35 36 37 38 41 43 41 41 46 48 47 48 44 39 39 39 37 38 37 38 39 36 36 33 29 31 29 28 32 31 26 22 22 22 22 24 23 24 18 13 12 15 18 20
38 37 37 38 38 39 42 41 40 42 45 47 48 43 43 42 42 39 38 37 38 36 34 33 31 34 31 31 31 31 30 21 21 25 25 24 27 25 24 16 11 12 15 17 21
40 39 37 37 37 37 38 41 40 40 39 40 47 43 44 44 43 41 39 38 34 32 31 31 31 33 31 33 31 25 24 20 20 27 27 27 25 28 17 14 9 12 15 17 22
39 39 39 38 36 36 36 38 41 39 38 36 42 42 43 44 43 44 38 38 40 37 36 34 35 30 31 33 27 26 23 20 20 25 27 27 21 21 12 12 11 14 17 19 21
32 36 38 40 40 39 37 37 39 39 40 39 37 38 40 41 41 38 36 34 34 41 41 41 34 34 32 28 23 23 22 18 22 26 27 26 22 20 12 19 14 14 16 19 19
23 26 32 37 39 42 40 38 38 41 41 37 36 36 35 34 33 38 42 40 37 35 33 34 34 34 29 24 20 20 18 21 24 25 25 22 22 18 18 19 15 16 16 15 15
17 21 24 27 35 39 41 37 36 38 37 27 32 36 33 33 34 36 37 35 35 38 37 36 29 25 23 18 19 21 20 20 21 23 22 18 23 13 9 10 19 19 20 12 15
17 18 20 22 23 30 36 37 35 36 30 24 28 29 33 32 35 33 32 29 28 30 30 24 24 23 21 21 20 17 17 17 20 22 16 18 20 17 11 19 15 20 19 16 16
23 17 19 20 22 22 25 28 29 25 23 24 24 27 28 29 28 30 29 30 30 27 25 22 24 21 20 19 17 16 17 18 20 15 13 17 18 17 12 14 15 19 17 12 10
31 26 20 21 22 23 23 21 21 24 22 20 22 20 21 20 26 26 28 29 28 28 26 22 22 18 20 19 16 18 16 20 16 15 15 17 17 16 16 16 17 17 16 9 9
39 34 28 25 25 22 22 22 24 24 17 23 21 16 16 20 22 26 27 31 31 28 26 25 23 19 19 16 16 18 20 22 22 21 18 16 13 14 14 17 17 17 18 11 12
47 44 38 33 30 27 24 25 25 22 20 17 18 17 22 21 20 18 15 20 25 25 24 24 22 22 16 16 14 13 15 18 24 27 22 17 12 11 15 12 16 18 20 18 16
55 54 48 43 37 34 32 28 24 22 20 19 19 20 19 23 17 16 16 18 21 23 24 24 21 19 20 17 13 15 15 16 21 25 23 20 15 11 27 14 15 16 19 21 22
64 62 57 53 47 44 40 36 31 27 24 23 23 21 18 19 18 16 17 19 20 24 24 18 19 18 18 13 14 13 11 12 14 18 22 23 21 20 24 19 19 18 19 21 24
74 69 67 61 57 53 50 44 40 35 33 29 27 26 23 20 19 17 16 20 23 21 19 17 18 14 12 15 14 14 13 11 7 6 12 22 18 20 22 20 20 22 23 23 22
83 79 73 68 66 60 57 54 51 45 42 38 35 31 30 27 23 20 20 23 20 17 20 18 19 16 16 13 17 18 16 12 9 9 12 14 8 11 30 28 26 24 29 28 27
90 89 77 76 74 69 65 61 58 55 51 47 42 39 37 34 30 27 24 24 25 23 20 19 20 17 16 18 18 20 20 16 13 14 16 15 10 4 19 34 35 29 31 33 31
95 93 87 85 80 75 74 70 68 65 61 57 52 47 44 42 40 36 32 27 26 28 25 23 24 21 18 18 18 18 18 14 12 14 16 13 10 5 36 33 31 26 28 32 33
99 99 96 92 87 84 81 77 74 71 66 62 60 57 52 51 47 42 39 39 37 35 34 30 28 25 25 22 19 19 19 17 12 10 10 11 11 13 14 18 20 17 17 20 21
Wind_Direction
228 226 224 225 225 226 229 231 230 230 228 231 233 234 234 237 239 242 245 251 253 256 261 265 267 270 274 280 284 285 289 298 285 286 288 293 294 296 297 301 307 300 293 293 295
228 225 223 223 225 227 230 231 231 231 230 230 232 234 236 238 240 243 246 249 253 256 259 262 268 274 277 279 282 285 290 261 285 289 290 293 295 296 300 308 322 302 299 296 294
222 223 223 225 228 229 230 230 230 232 233 234 234 237 239 243 244 244 244 248 250 253 257 263 270 275 276 279 281 280 276 271 281 286 290 292 293 296 294 310 47 298 298 287 290
221 221 224 224 224 228 229 229 233 236 238 240 241 242 243 246 249 248 248 249 253 256 259 264 269 272 275 277 279 280 283 282 284 289 292 294 294 292 288 278 218 266 277 280 281
221 223 226 227 227 227 230 232 236 238 239 242 244 245 244 246 249 250 251 253 257 257 260 265 268 269 272 275 276 280 282 284 287 290 292 293 292 292 287 279 271 264 265 276 275
223 227 227 231 231 230 233 234 235 235 236 238 242 242 243 247 248 248 250 252 254 255 258 263 264 266 271 274 276 282 284 285 287 292 292 294 296 304 291 285 278 271 263 271 242
225 228 233 234 232 232 232 232 233 236 238 239 242 242 245 245 245 248 251 251 251 254 257 260 265 270 272 275 278 278 279 287 294 295 290 290 317 113 284 284 276 251 259 258 214
227 230 235 238 235 235 235 233 232 233 236 238 237 243 244 246 248 249 251 251 251 254 257 262 267 269 273 276 277 273 281 288 288 287 286 292 116 259 277 284 267 254 250 247 226
230 235 241 241 237 239 239 236 233 232 235 233 238 241 235 241 238 240 248 249 249 254 258 261 262 265 269 278 270 277 282 285 282 282 282 288 287 280 287 276 265 234 245 241 241
235 240 243 239 240 239 238 237 234 233 233 232 235 244 239 237 236 241 246 249 242 243 250 259 257 258 265 270 275 275 280 272 274 275 280 281 288 302 305 293 247 227 242 241 242
240 242 241 238 240 239 239 236 236 234 234 233 230 240 240 240 244 246 247 241 248 246 255 258 257 264 267 272 275 266 264 269 271 277 274 275 283 299 313 304 261 227 239 241 237
240 240 237 235 239 241 241 235 236 234 235 235 231 239 244 247 244 247 250 250 243 244 244 250 260 259 266 273 265 259 262 270 274 273 273 274 280 293 301 293 265 244 240 244 239
241 238 238 236 233 239 241 239 236 238 240 237 236 239 242 246 244 245 248 253 249 246 252 254 257 256 266 265 253 260 263 272 263 266 271 273 274 275 324 283 256 243 242 254 243
241 238 236 238 237 238 236 236 237 238 240 238 241 242 242 244 239 230 238 241 246 251 254 259 262 262 259 252 257 260 259 254 261 268 269 274 271 260 262 263 249 246 241 263 240
247 243 240 240 236 235 235 235 235 238 240 244 239 238 241 241 234 235 243 246 248 251 256 256 256 247 244 248 257 254 248 263 270 275 280 263 265 265 259 271 265 255 238 267 252
244 243 241 239 237 234 234 233 235 239 241 236 238 237 241 243 239 245 246 243 242 241 245 244 238 238 240 251 243 246 254 263 270 269 273 264 259 259 230 209 254 259 243 266 263
247 240 238 234 236 229 226 226 227 231 234 231 236 236 236 239 239 237 235 233 234 238 238 226 232 237 246 233 231 238 248 254 254 263 260 255 258 266 261 247 257 263 252 275 245
244 242 234 234 231 225 224 219 218 226 217 215 220 220 225 231 242 243 235 235 229 227 223 224 235 232 224 226 224 241 251 254 247 258 256 256 259 267 267 258 254 257 251 259 245
242 240 237 232 228 222 215 218 220 221 213 221 219 207 206 219 227 236 238 229 225 222 229 227 221 208 217 227 243 253 249 259 254 250 256 250 255 264 266 257 257 249 250 237 230
239 240 237 235 230 225 223 221 218 216 212 204 209 207 205 212 222 233 217 214 216 216 213 205 204 210 215 227 231 245 262 262 258 250 246 249 254 279 281 273 264 255 246 254 245
237 239 238 235 232 231 226 223 218 212 209 210 213 217 205 211 217 216 191 189 191 190 197 197 209 208 215 221 232 251 264 275 269 249 238 241 249 187 259 281 277 268 254 250 252
232 235 237 234 231 231 233 226 221 216 211 213 215 220 215 213 222 215 207 190 187 193 203 211 213 206 218 226 236 241 256 275 285 247 234 239 242 240 271 281 272 267 260 252 251
236 232 233 233 232 228 231 230 228 222 219 214 219 223 221 218 218 219 208 202 213 212 217 201 214 209 224 220 222 237 249 264 280 253 238 246 263 275 291 296 279 264 261 258 251
237 234 231 231 233 231 228 228 230 227 228 220 218 222 228 226 221 222 210 211 219 211 214 215 219 218 215 207 222 231 248 253 246 238 248 257 276 342 302 300 286 269 254 250 251
234 234 230 231 230 229 229 229 229 229 228 230 223 220 226 230 228 227 225 215 224 223 228 223 230 234 228 220 225 232 241 249 246 247 254 268 279 99 184 261 294 276 260 245 249
232 232 230 231 230 228 228 228 228 228 228 227 230 226 223 230 232 229 228 227 228 229 229 236 240 238 233 224 228 228 242 254 252 255 262 267 256 224 259 262 284 273 260 245 238
228 228 229 228 228 228 227 228 229 229 228 229 229 231 227 228 233 238 236 229 229 223 229 234 243 244 238 232 231 225 239 249 248 253 265 283 291 277 276 299 298 266 255 241 235
Height
10856 10860 10864 10869 10874 10879 10884 10889 10893 10897 10902 10907 10910 10914 10919 10922 10925 10928 10930 10932 10933 10935 10936 10937 10939 10939 10940 10940 10939 10942 10946 10946 10940 10941 10934 10933 10931 10928 10926 10926 10927 10924 10918 10910 10905
10850 10853 10857 10863 10868 10872 10878 10882 10887 10891 10895 10900 10904 10907 10911 10915 10919 10922 10925 10927 10929 10929 10931 10932 10933 10934 10934 10933 10934 10938 10947 10930 10928 10930 10928 10924 10921 10921 10924 10926 10915 10905 10911 10906 10900
10844 10847 10851 10856 10861 10866 10871 10875 10880 10884 10888 10893 10897 10901 10904 10908 10912 10916 10918 10919 10922 10923 10925 10926 10927 10928 10928 10926 10925 10927 10931 10934 10924 10920 10918 10915 10914 10913 10919 10925 10908 10876 10902 10903 10896
10838 10842 10845 10850 10854 10859 10865 10869 10873 10877 10882 10886 10890 10893 10897 10901 10906 10908 10911 10913 10915 10917 10917 10919 10920 10922 10921 10920 10917 10917 10917 10916 10914 10911 10910 10908 10906 10906 10909 10915 10917 10902 10905 10898 10893
10833 10837 10840 10844 10848 10853 10858 10863 10867 10870 10875 10879 10882 10885 10890 10894 10897 10900 10903 10907 10908 10909 10910 10911 10914 10915 10914 10914 10910 10909 10908 10906 10906 10903 10901 10900 10899 10899 10898 10901 10904 10902 10895 10891 10889
10827 10831 10834 10837 10841 10846 10850 10855 10858 10863 10867 10871 10875 10878 10882 10886 10888 10892 10895 10899 10901 10901 10902 10903 10906 10907 10907 10907 10904 10903 10900 10899 10898 10897 10894 10893 10893 10895 10891 10891 10890 10889 10887 10886 10885
10821 10825 10828 10831 10834 10838 10842 10846 10851 10855 10860 10864 10867 10871 10875 10878 10881 10884 10888 10891 10893 10893 10895 10897 10899 10899 10901 10901 10900 10896 10894 10894 10892 10891 10889 10888 10898 10896 10886 10885 10884 10883 10883 10882 10882
10815 10819 10822 10824 10828 10831 10834 10838 10842 10846 10851 10856 10860 10865 10869 10872 10874 10877 10880 10884 10886 10887 10888 10891 10893 10893 10894 10895 10894 10890 10889 10890 10887 10886 10883 10883 10896 10875 10886 10880 10880 10880 10880 10878 10878
10809 10812 10815 10817 10820 10823 10826 10830 10834 10838 10843 10848 10852 10858 10863 10864 10867 10871 10872 10876 10880 10881 10881 10883 10886 10887 10887 10890 10887 10884 10885 10886 10884 10880 10879 10878 10879 10882 10878 10875 10876 10876 10876 10875 10874
10802 10805 10808 10810 10813 10815 10818 10821 10825 10829 10833 10839 10846 10850 10855 10857 10860 10864 10867 10869 10872 10874 10875 10878 10880 10880 10883 10882 10880 10880 10880 10882 10879 10875 10874 10873 10870 10871 10871 10870 10872 10872 10872 10871 10870
10794 10797 10800 10803 10805 10807 10811 10814 10818 10822 10826 10832 10837 10842 10844 10849 10854 10857 10860 10863 10866 10869 10871 10872 10873 10874 10878 10875 10874 10875 10875 10876 10875 10870 10869 10868 10868 10867 10867 10867 10867 10867 10867 10867 10866
10786 10789 10792 10795 10798 10800 10803 10808 10811 10815 10820 10824 10829 10834 10839 10842 10846 10849 10852 10856 10860 10862 10864 10865 10867 10869 10869 10869 10869 10870 10871 10872 10870 10865 10865 10865 10866 10865 10867 10867 10865 10865 10864 10863 10863
10779 10781 10785 10788 10791 10793 10797 10800 10804 10808 10812 10817 10822 10827 10832 10834 10837 10843 10845 10849 10852 10856 10857 10860 10862 10862 10863 10864 10864 10866 10867 10866 10864 10862 10861 10861 10863 10863 10867 10866 10863 10862 10860 10859 10859
10773 10775 10777 10780 10784 10785 10789 10793 10797 10799 10804 10810 10816 10820 10824 10826 10830 10834 10837 10842 10845 10847 10851 10853 10854 10855 10857 10858 10860 10861 10861 10860 10858 10857 10857 10857 10857 10861 10862 10861 10860 10857 10856 10855 10856
10768 10770 10772 10773 10775 10778 10781 10786 10789 10791 10796 10807 10809 10812 10815 10818 10822 10826 10830 10835 10838 10840 10843 10844 10847 10849 10851 10854 10854 10854 10855 10855 10854 10853 10853 10854 10852 10854 10858 10861 10858 10854 10852 10853 10854
10764 10765 10767 10769 10769 10771 10774 10779 10783 10785 10791 10798 10801 10805 10807 10810 10814 10819 10823 10827 10830 10833 10835 10839 10841 10844 10846 10847 10848 10850 10851 10851 10849 10848 10850 10849 10848 10851 10854 10854 10854 10850 10850 10852 10851
10759 10761 10762 10763 10765 10766 10769 10773 10778 10782 10787 10791 10794 10797 10800 10803 10807 10811 10814 10818 10822 10827 10829 10833 10834 10838 10840 10842 10845 10845 10846 10845 10844 10846 10846 10846 10846 10848 10849 10849 10849 10847 10847 10849 10849
10753 10755 10759 10760 10761 10764 10766 10770 10775 10778 10781 10787 10788 10792 10795 10798 10800 10803 10807 10812 10815 10819 10822 10827 10830 10833 10835 10837 10841 10841 10841 10840 10841 10843 10842 10843 10844 10846 10845 10845 10845 10846 10846 10847 10846
10745 10749 10753 10755 10757 10760 10763 10767 10769 10773 10779 10781 10785 10789 10791 10793 10795 10796 10799 10803 10808 10813 10817 10821 10825 10829 10831 10833 10835 10836 10837 10837 10837 10839 10838 10840 10842 10843 10844 10843 10844 10845 10845 10845 10845
10736 10739 10745 10749 10752 10755 10760 10761 10765 10770 10773 10778 10781 10785 10787 10789 10790 10792 10795 10797 10802 10807 10811 10815 10820 10823 10826 10828 10830 10831 10832 10831 10830 10832 10835 10837 10840 10840 10841 10841 10841 10843 10843 10843 10843
10723 10727 10735 10740 10745 10750 10752 10757 10761 10765 10769 10773 10777 10779 10783 10785 10787 10790 10792 10795 10798 10803 10807 10811 10815 10820 10822 10824 10827 10827 10827 10826 10824 10825 10830 10833 10836 10838 10838 10839 10839 10839 10840 10839 10839
10709 10713 10722 10729 10736 10739 10745 10749 10754 10759 10764 10767 10770 10774 10778 10781 10783 10786 10790 10794 10797 10800 10803 10808 10812 10817 10818 10821 10823 10824 10823 10822 10820 10820 10824 10828 10830 10836 10835 10838 10837 10834 10835 10834 10834
10691 10700 10705 10716 10724 10728 10733 10741 10746 10751 10755 10760 10764 10768 10772 10776 10780 10783 10786 10791 10792 10797 10800 10805 10808 10811 10814 10817 10819 10820 10820 10820 10820 10819 10821 10823 10829 10836 10840 10838 10833 10830 10829 10829 10829
10669 10679 10690 10701 10706 10717 10723 10730 10735 10741 10746 10752 10757 10761 10765 10769 10774 10778 10782 10785 10788 10793 10796 10800 10803 10806 10810 10813 10815 10817 10818 10818 10819 10819 10820 10822 10831 10839 10830 10836 10830 10824 10821 10822 10822
10644 10652 10678 10683 10688 10699 10708 10717 10723 10730 10736 10741 10749 10754 10756 10761 10767 10772 10776 10781 10784 10788 10791 10795 10798 10802 10805 10809 10811 10812 10814 10815 10816 10817 10817 10821 10827 10828 10822 10826 10822 10817 10813 10814 10815
10618 10634 10653 10660 10672 10681 10689 10699 10705 10713 10722 10729 10736 10744 10749 10752 10756 10763 10769 10776 10779 10783 10787 10790 10793 10797 10801 10804 10806 10808 10810 10810 10813 10814 10815 10817 10820 10820 10832 10822 10815 10808 10806 10806 10808
10589 10605 10621 10636 10649 10658 10668 10679 10688 10697 10708 10716 10722 10730 10739 10742 10748 10756 10761 10765 10770 10775 10779 10783 10786 10791 10794 10798 10802 10804 10804 10806 10808 10810 10811 10813 10815 10816 10815 10811 10807 10803 10802 10801 10804